Location: Newark
(42.8481°N, 0.4872°E)
Time: 08:37:32
(UTC+00:00)

Vanguard 2 - Pass Details

Date: 01 November 2020
Orbit: 554 x 2937 km, 32.9° (Epoch: 28 November)

Event Time Altitude Azimuth Distance (km) Brightness Sun altitude
Rises 19:08:08 0° 243° (WSW) 4,820 12.5 -25.8°
Reaches altitude 10° 19:10:57 10° 239° (WSW) 4,112 11.9 -26.3°
Maximum altitude 19:22:22 54° 166° (SSE) 2,810 10.1 -28.4°
Enters shadow 19:28:01 40° 119° (ESE) 3,495 10.3 -29.4°
Drops below altitude 10° 19:38:44 10° 97° (E) 5,733 - -31.3°
Sets 19:43:30 0° 93° (E) 6,791 - -32.2°
